Find Starlink 33622

NORAD ID: 63066 Int'l Des: 2025-035 Owner: SPXS Country: US Constellation: starlink operational
LEOCIRCULAR

Live-Position

3D-Globus wird geladen...

Über Starlink 33622

Beschreibung wird geladen...

Nächste Überflüge

Passes for default location (London). Set your location on the main map for personalized predictions.

Höhenverlauf

Loading altitude history...

Zweizeiliger Elementsatz

1 63066U 25035Q 26124.20815046 .00020871 00000-0 76549-3 0 9999
2 63066 42.9987 193.2679 0000439 241.3195 118.7612 15.27593856 68225
Epoch: 4. Mai 2026 • Age: 24 hours

Aktueller Status

Höhe 481.9 km
Geschwindigkeit 7.63 km/s
Subsatellitenpunkt 14.66°N, 49.92°E
Startdatum 21. Feb. 2025
Alter 1.1 years
Typ internet

Technische Details

Klassifizierung Payload
Masse 575.00 kg
Trockenmasse 530.00 kg
Gesamtmasse 575.00 kg
Länge 0.30 m
Durchmesser 4.10 m
Spannweite 29.00 m
Form Box + pan
Hersteller SPXS
Bus-Typ Starlink V2MO
Phasenstatus In Orbit
Besitzer/Staat SPXS/US

Most Searched